Find Intelsat IS-23

NORAD ID: 38867 Int'l Des: 2012-057 Owner: INTELU Country: US operational
HEOCIRCULARGSOGEO

リアルタイム位置

3D地球を読み込み中...

Intelsat IS-23について

説明を読み込み中...

次回通過

Passes for default location (London). Set your location on the main map for personalized predictions.

高度履歴

Loading altitude history...

軌道要素

1 38867U 12057A 26106.10088358 -.00000278 00000-0 00000-0 0 9993
2 38867 0.0198 262.9349 0000477 27.0742 257.5662 1.00269672 49332
Epoch: Apr 16, 2026 • Age: 12 hours

現在のステータス

高度 35786.3 km
速度 3.07 km/s
衛星直下点 0.03°N, 53°W
打ち上げ日 Oct 14, 2012
運用期間 13.5 years
タイプ communications

技術仕様

分類 Payload
質量 3200.00 kg
乾燥質量 1440.00 kg
総質量 3200.00 kg
長さ 5.50 m
直径 2.30 m
スパン 22.40 m
形状 Box + 2 pan
製造者 OSCD
バスタイプ OSC Star 2
フェーズステータス In Orbit
所有者/国 INTELU/US

Most Searched